Date String (YYYY-MM-DD hh:mm:ss) UTC,Instrument flags,absolute air pressure of the measurement (hPa),sample flow rate (lpm),inlet stack bypass flow (lpm),air temperature of the measurement (°C),ambient temperature measured by the external sensor (°C),aerosol sample conditioner tube jacket temperature (°C),OPC LED temperature (°C),internal box temperature (°C),relative humidity of the measurement (%),span deviation,mass concentration of particles derived from Lorenz-Mie calculation of OPC scattering (μg/m³),mass concentration of particles derived from Lorenz-Mie calculation of OPC scattering (μg/m³),mass concentration of particles derived from Lorenz-Mie calculation of OPC scattering (μg/m³)
DateTimeUTC,F1_M11,P_M11,Q1_M11,Q2_M11,T1_M11,T2_M11,T3_M11,T4_M11,T5_M11,U1_M11,ZSPAN_M11,X0_M11,X2_M11,X1_M11
2024-02-23 00:00:00,SystemResetWarning,0831.3,4.99,000.00,022.2,021.7,000.0,030.5,024.0,19.8,0000.0,0001.20,0000.66,0000.48
2024-02-23 00:01:00,SystemResetWarning,0831.3,4.98,000.00,022.2,021.7,000.0,030.5,024.0,19.7,0000.0,0001.16,0000.65,0000.47
2024-02-23 00:02:00,SystemResetWarning,0831.3,5.01,000.00,022.2,021.7,000.0,030.6,024.0,19.7,0000.0,0001.09,0000.63,0000.47
2024-02-23 00:03:00,SystemResetWarning,0831.3,5.01,000.00,022.2,021.7,000.0,030.6,024.0,19.6,0000.0,0001.02,0000.61,0000.47
2024-02-23 00:04:00,SystemResetWarning,0831.3,5.00,000.00,022.2,021.7,000.0,030.6,024.0,19.4,0000.0,0001.04,0000.62,0000.48
2024-02-23 00:05:00,SystemResetWarning,0831.3,5.00,000.00,022.2,021.7,000.0,030.6,024.0,19.2,0000.0,0001.08,0000.63,0000.47
2024-02-23 00:06:00,SystemResetWarning,0831.3,5.00,000.00,022.2,021.7,000.0,030.6,024.0,19.2,0000.0,0001.14,0000.64,0000.46
2024-02-23 00:07:00,SystemResetWarning,0831.3,4.99,000.00,022.2,021.7,000.0,030.6,024.0,18.7,0000.0,0001.23,0000.67,0000.47
2024-02-23 00:08:00,SystemResetWarning,0831.3,5.00,000.00,022.2,021.7,000.0,030.6,024.0,18.8,0000.0,0001.27,0000.69,0000.48
2024-02-23 00:09:00,SystemResetWarning,0831.3,5.00,000.00,022.2,021.7,000.0,030.6,024.0,19.1,0000.0,0001.19,0000.68,0000.47
2024-02-23 00:10:00,SystemResetWarning,0831.3,5.01,000.00,022.2,021.7,000.0,030.6,024.0,19.0,0000.0,0001.28,0000.71,0000.48
2024-02-23 00:11:00,SystemResetWarning,0831.3,5.00,000.00,022.2,021.8,000.0,030.6,024.0,18.9,0000.0,0001.29,0000.70,0000.47
2024-02-23 00:12:00,SystemResetWarning,0831.3,5.00,000.00,022.2,021.8,000.0,030.6,024.1,18.9,0000.0,0001.32,0000.71,0000.48
2024-02-23 00:13:00,SystemResetWarning,0831.3,5.00,000.00,022.2,021.8,000.0,030.6,024.1,18.8,0000.0,0001.35,0000.73,0000.49
2024-02-23 00:14:00,SystemResetWarning,0831.3,4.99,000.00,022.2,021.8,000.0,030.6,024.1,18.6,0000.0,0001.39,0000.75,0000.49
2024-02-23 00:15:00,SystemResetWarning,0831.3,4.99,000.00,022.3,021.8,000.0,030.6,024.1,18.5,0000.0,0001.35,0000.73,0000.49
2024-02-23 00:16:00,SystemResetWarning,0831.3,5.00,000.00,022.3,021.8,000.0,030.6,024.1,18.5,0000.0,0001.30,0000.72,0000.50
2024-02-23 00:17:00,SystemResetWarning,0831.3,5.01,000.00,022.3,021.8,000.0,030.6,024.1,18.4,0000.0,0001.31,0000.72,0000.50
2024-02-23 00:18:00,SystemResetWarning,0831.3,5.01,000.00,022.3,021.8,000.0,030.6,024.1,18.4,0000.0,0001.20,0000.70,0000.50
2024-02-23 00:19:00,SystemResetWarning,0831.3,5.00,000.00,022.3,021.8,000.0,030.6,024.2,18.3,0000.0,0001.13,0000.68,0000.50
2024-02-23 00:20:00,SystemResetWarning,0831.3,4.99,000.00,022.3,021.8,000.0,030.6,024.2,17.8,0000.0,0001.16,0000.68,0000.50
2024-02-23 00:21:00,SystemResetWarning,0831.3,5.00,000.00,022.3,021.9,000.0,030.6,024.2,17.7,0000.0,0001.10,0000.67,0000.50
2024-02-23 00:22:00,SystemResetWarning,0831.3,5.00,000.00,022.3,021.9,000.0,030.7,024.2,17.5,0000.0,0001.04,0000.65,0000.50
2024-02-23 00:23:00,SystemResetWarning,0831.3,5.00,000.00,022.3,021.9,000.0,030.7,024.2,17.4,0000.0,0001.06,0000.65,0000.49
2024-02-23 00:24:00,SystemResetWarning,0831.4,5.01,000.00,022.4,021.9,000.0,030.7,024.2,17.2,0000.0,0001.13,0000.66,0000.49
2024-02-23 00:25:00,SystemResetWarning,0831.4,5.01,000.00,022.4,021.9,000.0,030.7,024.2,17.0,0000.0,0001.17,0000.66,0000.48
2024-02-23 00:26:00,SystemResetWarning,0831.4,5.00,000.00,022.4,021.9,000.0,030.7,024.2,17.6,0000.0,0001.19,0000.66,0000.47
2024-02-23 00:27:00,SystemResetWarning,0831.4,5.00,000.00,022.4,021.9,000.0,030.7,024.2,18.3,0000.0,0001.19,0000.65,0000.47
2024-02-23 00:28:00,SystemResetWarning,0831.4,5.00,000.00,022.4,021.9,000.0,030.7,024.2,18.6,0000.0,0001.17,0000.63,0000.46
2024-02-23 00:29:00,SystemResetWarning,0831.4,5.00,000.00,022.4,021.9,000.0,030.7,024.2,18.8,0000.0,0002.17,0000.60,0000.45
2024-02-23 00:30:00,SystemResetWarning,0831.4,5.00,000.00,022.4,021.8,000.0,030.7,024.2,18.8,0000.0,0002.19,0000.60,0000.45
2024-02-23 00:31:00,SystemResetWarning,0831.5,5.00,000.00,022.4,021.8,000.0,030.7,024.1,18.8,0000.0,0002.26,0000.63,0000.45
2024-02-23 00:32:00,SystemResetWarning,0831.4,4.99,000.00,022.3,021.8,000.0,030.7,024.1,18.8,0000.0,0002.23,0000.61,0000.44
2024-02-23 00:33:00,SystemResetWarning,0831.4,5.01,000.00,022.4,021.8,000.0,030.7,024.2,18.8,0000.0,0002.34,0000.64,0000.43
2024-02-23 00:34:00,SystemResetWarning,0831.4,5.00,000.00,022.4,021.8,000.0,030.7,024.2,18.6,0000.0,0002.33,0000.63,0000.42
2024-02-23 00:35:00,SystemResetWarning,0831.3,5.01,000.00,022.4,021.8,000.0,030.7,024.2,18.6,0000.0,0002.19,0000.58,0000.42
2024-02-23 00:36:00,SystemResetWarning,0831.3,5.01,000.00,022.4,021.8,000.0,030.7,024.2,18.5,0000.0,0002.23,0000.57,0000.42
2024-02-23 00:37:00,SystemResetWarning,0831.4,5.00,000.00,022.4,021.8,000.0,030.7,024.2,18.4,0000.0,0002.18,0000.58,0000.43
2024-02-23 00:38:00,SystemResetWarning,0831.3,5.00,000.00,022.4,021.9,000.0,030.8,024.2,18.3,0000.0,0002.19,0000.58,0000.43
2024-02-23 00:39:00,SystemResetWarning,0831.3,5.00,000.00,022.4,021.9,000.0,030.8,024.2,18.4,0000.0,0002.29,0000.62,0000.44
2024-02-23 00:40:00,SystemResetWarning,0831.3,5.00,000.00,022.4,021.9,000.0,030.8,024.2,18.3,0000.0,0001.63,0000.67,0000.45
2024-02-23 00:41:00,SystemResetWarning,0831.3,5.00,000.00,022.4,021.9,000.0,030.8,024.3,18.2,0000.0,0001.55,0000.74,0000.47
2024-02-23 00:42:00,SystemResetWarning,0831.3,5.00,000.00,022.4,021.9,000.0,030.8,024.3,18.1,0000.0,0001.59,0000.76,0000.49
2024-02-23 00:43:00,SystemResetWarning,0831.3,5.00,000.00,022.4,021.9,000.0,030.8,024.3,17.9,0000.0,0001.60,0000.78,0000.51
2024-02-23 00:44:00,SystemResetWarning,0831.3,5.01,000.00,022.4,021.9,000.0,030.8,024.3,17.7,0000.0,0001.56,0000.79,0000.53
2024-02-23 00:45:00,SystemResetWarning,0831.3,5.00,000.00,022.4,021.9,000.0,030.8,024.3,17.7,0000.0,0001.62,0000.82,0000.54
2024-02-23 00:46:00,SystemResetWarning,0831.3,5.01,000.00,022.4,021.9,000.0,030.8,024.3,17.7,0000.0,0001.72,0000.86,0000.55
2024-02-23 00:47:00,SystemResetWarning,0831.3,5.00,000.00,022.4,021.9,000.0,030.8,024.3,17.7,0000.0,0001.74,0000.89,0000.56
2024-02-23 00:48:00,SystemResetWarning,0831.4,5.00,000.00,022.5,021.9,000.0,030.8,024.3,17.7,0000.0,0001.80,0000.91,0000.57
2024-02-23 00:49:00,SystemResetWarning,0831.3,4.99,000.00,022.5,021.9,000.0,030.8,024.3,17.8,0000.0,0001.89,0000.95,0000.57
2024-02-23 00:50:00,SystemResetWarning,0831.3,4.99,000.00,022.5,021.9,000.0,030.8,024.4,17.2,0000.0,0001.88,0000.95,0000.57
2024-02-23 00:51:00,SystemResetWarning,0831.4,5.00,000.00,022.5,021.9,000.0,030.9,024.4,16.9,0000.0,0001.87,0000.95,0000.57
2024-02-23 00:52:00,SystemResetWarning,0831.3,5.00,000.00,022.5,021.9,000.0,030.9,024.3,17.0,0000.0,0001.68,0000.90,0000.56
2024-02-23 00:53:00,SystemResetWarning,0831.3,5.01,000.00,022.5,021.9,000.0,030.9,024.3,16.7,0000.0,0001.51,0000.85,0000.54
2024-02-23 00:54:00,SystemResetWarning,0831.3,5.01,000.00,022.5,021.9,000.0,030.9,024.3,16.4,0000.0,0001.50,0000.84,0000.53
2024-02-23 00:55:00,SystemResetWarning,0831.4,5.00,000.00,022.5,021.9,000.0,030.8,024.3,16.2,0000.0,0001.42,0000.80,0000.51
2024-02-23 00:56:00,SystemResetWarning,0831.4,5.01,000.00,022.5,021.9,000.0,030.9,024.3,16.4,0000.0,0001.39,0000.79,0000.49
2024-02-23 00:57:00,SystemResetWarning,0831.4,5.00,000.00,022.5,021.9,000.0,030.9,024.3,17.0,0000.0,0001.36,0000.78,0000.49
2024-02-23 00:58:00,SystemResetWarning,0831.4,5.00,000.00,022.4,021.9,000.0,030.9,024.3,17.4,0000.0,0001.32,0000.78,0000.48
2024-02-23 00:59:00,SystemResetWarning,0831.4,5.00,000.00,022.4,021.8,000.0,030.9,024.2,17.5,0000.0,0001.30,0000.77,0000.47
